Time,TemperatureF,DewpointF,PressureIn,WindDirection,WindDirectionDegrees,WindSpeedMPH,WindSpeedGustMPH,Humidity,HourlyPrecipIn,Conditions,Clouds,dailyrainin,SoftwareType,DateUTC
2013-12-25 00:12:00,32.0,18.0,-100.00,NW,320,16.0,27.0,57,-99.99,,,-99.99,,2013-12-25 05:12:00,
2013-12-25 00:30:00,30.0,16.0,-100.00,NW,320,20.0,29.0,55,-99.99,,,-99.99,,2013-12-25 05:30:00,
2013-12-25 01:22:00,30.0,16.0,-100.00,NW,320,20.0,29.0,55,-99.99,,,-99.99,,2013-12-25 06:22:00,
2013-12-25 02:30:00,27.0,15.0,-100.00,NNW,330,18.0,25.0,59,-99.99,,,-99.99,,2013-12-25 07:30:00,
2013-12-25 03:21:00,27.0,15.0,-100.00,NNW,330,18.0,25.0,59,-99.99,,,-99.99,,2013-12-25 08:21:00,
2013-12-25 04:42:00,25.0,14.0,-100.00,NNW,330,13.0,22.0,62,-99.99,,,-99.99,,2013-12-25 09:42:00,
2013-12-25 08:52:00,24.0,11.0,-100.00,NNW,330,16.0,22.0,58,-99.99,,,-99.99,,2013-12-25 13:52:00,
2013-12-25 10:00:00,24.0,8.0,-100.00,NNW,330,13.0,18.0,50,-99.99,,,-99.99,,2013-12-25 15:00:00,
2013-12-25 10:53:00,24.0,8.0,-100.00,NNW,330,13.0,18.0,50,-99.99,,,-99.99,,2013-12-25 15:53:00,
2013-12-25 11:30:00,27.0,10.0,-100.00,North,360,11.0,18.0,47,-99.99,,,-99.99,,2013-12-25 16:30:00,
2013-12-25 12:22:00,27.0,10.0,-100.00,North,360,11.0,18.0,47,-99.99,,,-99.99,,2013-12-25 17:22:00,
2013-12-25 12:30:00,27.0,9.0,-100.00,NNW,340,9.0,13.0,45,-99.99,,,-99.99,,2013-12-25 17:30:00,
2013-12-25 13:22:00,27.0,9.0,-100.00,NNW,340,9.0,13.0,45,-99.99,,,-99.99,,2013-12-25 18:22:00,
2013-12-25 15:52:00,26.0,5.0,-100.00,NE,50,4.0,9.0,39,-99.99,,,-99.99,,2013-12-25 20:52:00,
2013-12-25 16:00:00,27.0,6.0,-100.00,SSE,150,2.0,7.0,41,-99.99,,,-99.99,,2013-12-25 21:00:00,
2013-12-25 16:53:00,27.0,6.0,-100.00,SSE,150,2.0,7.0,41,-99.99,,,-99.99,,2013-12-25 21:53:00,
2013-12-25 18:52:00,27.0,8.0,-100.00,ESE,120,4.0,9.0,44,-99.99,,,-99.99,,2013-12-25 23:52:00,
2013-12-25 19:21:00,27.0,9.0,-100.00,SSE,150,4.0,7.0,45,-99.99,,,-99.99,,2013-12-26 00:21:00,
2013-12-25 19:30:00,28.0,13.0,-100.00,SE,130,9.0,13.0,52,-99.99,,,-99.99,,2013-12-26 00:30:00,
2013-12-25 20:21:00,28.0,13.0,-100.00,SE,130,9.0,13.0,52,-99.99,,,-99.99,,2013-12-26 01:21:00,